[[{"header":{"parameterUnit":"m.s-1","parameterCategory":1,"la1":30.2991,"la2":30.254,"lo1":-89.0895,"lo2":-89.0444,"dy":0.0017,"dx":0.0017,"nx":28,"ny":28,"refTime":"2025-03-25T09:00:00:Z","depth":0,"parameterNumber":2,"parameterNumberName":"U-component_of_WINDS"},"data":[0,0,0,0,0,0,0,0,0,0,0,0,0,0,0,0,0,0,0,0,0,0,0,0,0,0,0,0,0,0,0,0,0,0,0,0,0,0,0,0,0,0,0,0,0,0,0,0,0,0,0,0,0,0,0,0,0,0,-3.1261,-3.1261,0,-3.1244,-3.1244,-3.1244,-3.1097,-3.1093,-3.1089,-3.1086,-3.1071,-3.1074,-3.1077,0,0,0,0,0,0,0,0,0,0,0,0,0,-3.117,-3.1172,-3.1261,-3.1261,-3.1261,-3.1244,-3.1244,-3.1244,-3.1097,-3.1093,-3.1088,-3.1084,-3.107,-3.1074,-3.1077,0,0,0,0,0,0,0,0,0,0,0,0,0,-3.1187,-3.1173,-3.1261,-3.1186,-3.1179,-3.1244,-3.1244,-3.1244,-3.1098,-3.1093,-3.1087,-3.1082,-3.1069,-3.1073,-3.1078,-3.1215,0,0,-3.1092,-3.1094,0,0,0,0,0,0,0,0,-3.1186,-3.119,-3.1197,-3.1191,-3.1183,-3.1167,-3.1206,-3.1234,-3.11,-3.1129,-3.1086,-3.108,-3.1108,-3.1109,-3.1117,-3.1215,-3.1214,-3.1092,-3.1095,-3.1097,-3.1098,0,0,0,0,0,0,0,-3.1185,-3.119,-3.1254,-3.1197,-3.1189,-3.1153,-3.115,-3.1211,-3.1149,-3.1126,-3.1115,-3.1115,-3.1103,-3.1114,-3.1116,-3.1214,-3.1092,-3.1096,-3.1099,-3.11,-3.1424,-3.1429,0,0,0,0,0,0,-3.1194,-3.119,-3.1255,-3.1254,-3.1171,-3.116,-3.1155,-3.1178,-3.1148,-3.1138,-3.112,-3.1108,-3.1108,-3.1111,-3.1115,-3.1274,-3.1097,-3.1101,-3.1103,-3.1418,-3.1425,-3.1431,0,0,0,0,0,0,-3.1193,-3.1201,-3.1256,-3.1219,-3.1223,-3.1167,-3.1193,-3.118,-3.1191,-3.1143,-3.1132,-3.1142,-3.1104,-3.1109,-3.1191,-3.1272,-3.1103,-3.1107,-3.1411,-3.142,-3.1428,-3.1595,0,0,0,0,0,0,-3.1191,-3.1202,-3.1253,-3.1221,-3.1226,-3.1332,-3.1198,-3.1184,-3.1199,-3.1183,-3.1161,-3.1152,-3.11,-3.1185,-3.1196,-3.1275,-3.1111,-3.1403,-3.1415,-3.1425,-3.1582,-3.1608,-3.1631,0,0,0,0,0,-3.1188,-3.1301,-3.1256,-3.1265,-3.1288,-3.1337,-3.134,-3.1277,-3.1206,-3.1257,-3.1227,-3.1153,-3.1261,-3.1195,-3.1206,-3.1287,-3.1398,-3.1412,-3.1424,-3.1571,-3.1603,-3.163,0,0,0,0,0,0,-3.1343,-3.1295,-3.1245,-3.1351,-3.1349,-3.1312,-3.1375,-3.1313,-3.1332,-3.1317,-3.1239,-3.1235,-3.133,-3.1317,-3.1244,-3.1419,-3.1317,-3.1333,-3.1425,-3.1455,-3.1479,-3.148,-3.1114,0,0,0,0,0,-3.139,-3.1433,-3.1388,-3.1486,-3.1488,-3.1432,-3.1451,-3.1403,-3.1398,-3.1397,-3.1372,-3.1371,-3.1405,-3.1429,-3.1457,-3.1579,-3.1572,-3.164,-3.1665,-3.1685,-3.17,-3.1764,-3.1794,-3.1475,-3.1474,-3.1474,0,0,-3.1487,-3.1466,-3.1497,-3.1517,-3.151,-3.1557,-3.1432,-3.1487,-3.1521,-3.1405,-3.1482,-3.1464,-3.1458,-3.1561,-3.1605,-3.1553,-3.1787,-3.1702,-3.1719,-3.1722,-3.1781,-3.1811,-3.1838,-3.1484,-3.1482,-3.148,0,0,-3.1687,-3.1675,-3.1755,-3.1751,-3.1741,-3.1704,-3.1723,-3.1696,-3.168,-3.1755,-3.1669,-3.1709,-3.1769,-3.1768,-3.1776,-3.1977,-3.191,-3.1988,-3.2116,-3.218,-3.2205,-3.2227,-3.23,-3.2327,-3.2003,-3.2004,-3.2004,0,-3.1809,-3.1875,-3.1805,-3.1865,-3.1877,-3.1773,-3.1855,-3.1854,-3.1855,-3.1866,-3.1807,-3.188,-3.1868,-3.197,-3.202,-3.2029,-3.205,-3.1991,-3.2207,-3.2228,-3.2248,-3.2316,-3.2344,-3.2013,-3.2012,-3.2011,-3.201,0,-3.2025,-3.2073,-3.2139,-3.2142,-3.2161,-3.2232,-3.2174,-3.2201,-3.2152,-3.2121,-3.22,-3.2182,-3.2206,-3.2226,-3.2179,-3.2322,-3.229,-3.2221,-3.2116,-3.2289,-3.2352,-3.2378,-3.2027,-3.2024,-3.2021,-3.2018,0,0,-3.2323,-3.2287,-3.2312,-3.2313,-3.2295,-3.2331,-3.2398,-3.242,-3.2446,-3.245,-3.2505,-3.2558,-3.2494,-3.2503,-3.2454,-3.251,-3.2672,-3.2433,-3.2432,-3.2479,-3.283,-3.2883,-3.2914,-3.2627,-3.2632,-3.2635,-3.2831,0,-3.2516,-3.2627,-3.2566,-3.2686,-3.273,-3.2632,-3.269,-3.2687,-3.266,-3.2694,-3.2663,-3.2703,-3.2614,-3.2619,-3.267,-3.2641,-3.2741,-3.2626,-3.2678,-3.2681,-3.2683,-3.2947,-3.3003,-3.3188,-3.2855,-3.2859,-3.2862,0,-3.2756,-3.2771,-3.2895,-3.287,-3.2886,-3.2939,-3.2955,-3.2988,-3.2982,-3.2959,-3.297,-3.2908,-3.2972,-3.2869,-3.2958,-3.2881,-3.2899,-3.2888,-3.2894,-3.2897,-3.2782,-3.2958,-3.3245,-3.3274,-3.29,-3.2897,-3.2894,0,-3.2962,-3.3012,-3.3093,-3.3097,-3.3069,-3.3109,-3.31,-3.3088,-3.3106,-3.312,-3.3131,-3.3153,-3.3166,-3.3185,-3.3131,-3.3061,-3.3228,-3.312,-3.3211,-3.3213,-3.3251,-3.325,-3.3547,-3.3262,-3.3262,-3.3261,-3.3261,0,-3.3184,-3.3264,-3.3185,-3.3235,-3.3322,-3.3252,-3.3341,-3.3321,-3.3312,-3.3357,-3.3274,-3.3319,-3.3245,-3.3282,-3.3241,-3.3321,-3.3327,-3.3311,-3.3299,-3.3319,-3.3321,-3.333,-3.3316,-3.3268,-3.3267,-3.3265,-3.3264,0,-3.3429,-3.3379,-3.3461,-3.3428,-3.3422,-3.3488,-3.346,-3.3506,-3.3473,-3.3531,-3.3541,-3.3491,-3.353,-3.3478,-3.3513,-3.3485,-3.3596,-3.3564,-3.3598,-3.3589,-3.3684,-3.3676,-3.3997,-3.4036,-3.3727,-3.373,-3.3732,0,-3.3574,-3.3634,-3.3607,-3.3631,-3.3627,-3.3666,-3.3684,-3.3617,-3.3639,-3.3638,-3.3684,-3.3716,-3.3739,-3.3807,-3.3774,-3.3801,-3.377,-3.3881,-3.3774,-3.3792,-3.3773,-3.377,-3.3776,-3.3903,-3.3907,-3.391,-3.3912,0,-3.3838,-3.3811,-3.3838,-3.3859,-3.3882,-3.3894,-3.3901,-3.3926,-3.3856,-3.3885,-3.3924,-3.3942,-3.3978,-3.4012,-3.403,-3.4021,-3.3956,-3.3946,-3.3969,-3.399,-3.4007,-3.4,-3.3659,-3.3939,-3.3937,-3.3935,-3.3933,-3.3932,-3.4038,-3.4086,-3.4076,-3.411,-3.4108,-3.4116,-3.4157,-3.413,-3.4161,-3.4185,-3.4144,-3.4194,-3.4188,-3.4205,-3.4204,-3.4243,-3.4195,-3.4228,-3.4236,-3.4245,-3.426,-3.4001,-3.4246,-3.4245,-3.4244,-3.4243,-3.4243,0,-3.4298,-3.4286,-3.4318,-3.433,-3.4358,-3.4293,-3.4297,-3.4325,-3.437,-3.4369,-3.4393,-3.4439,-3.4472,-3.4442,-3.4469,-3.4506,-3.4477,-3.4516,-3.4513,-3.4512,-3.4301,-3.4279,-3.4539,-3.4539,-3.4539,-3.4538,-3.4538,-3.4538,-3.4436,-3.4515,-3.4487,-3.4564,-3.4552,-3.46,-3.4608,-3.4616,-3.4615,-3.467,-3.4696,-3.4676,-3.4664,-3.469,-3.4718,-3.4708,-3.4722,-3.4772,-3.4752,-3.4556,-3.4527,-3.4499,-3.4478,-3.4775,-3.4775,-3.4959,-3.4961,-3.4962]},{"header":{"parameterUnit":"m.s-1","parameterCategory":1,"la1":30.2991,"la2":30.254,"lo1":-89.0895,"lo2":-89.0444,"dy":0.0017,"dx":0.0017,"nx":28,"ny":28,"refTime":"2025-03-25T09:00:00:Z","depth":0,"parameterNumber":3,"parameterNumberName":"V-component_of_WINDS"},"data":[0,0,0,0,0,0,0,0,0,0,0,0,0,0,0,0,0,0,0,0,0,0,0,0,0,0,0,0,0,0,0,0,0,0,0,0,0,0,0,0,0,0,0,0,0,0,0,0,0,0,0,0,0,0,0,0,0,0,-0.9097,-0.9098,0,-0.9166,-0.9167,-0.9167,-0.9214,-0.9215,-0.9215,-0.9216,-0.9283,-0.9284,-0.9286,0,0,0,0,0,0,0,0,0,0,0,0,0,-0.9004,-0.9005,-0.9097,-0.9098,-0.9099,-0.9166,-0.9167,-0.9168,-0.9214,-0.9215,-0.9215,-0.9216,-0.9282,-0.9284,-0.9286,0,0,0,0,0,0,0,0,0,0,0,0,0,-0.9056,-0.9006,-0.9097,-0.9131,-0.9134,-0.9166,-0.9167,-0.9168,-0.9214,-0.9215,-0.9215,-0.9216,-0.9282,-0.9284,-0.9286,-0.9289,0,0,-0.9293,-0.9294,0,0,0,0,0,0,0,0,-0.9053,-0.9059,-0.9125,-0.9128,-0.9132,-0.9182,-0.9159,-0.9208,-0.9214,-0.9184,-0.9216,-0.9216,-0.9249,-0.9254,-0.9265,-0.9292,-0.9295,-0.9293,-0.9294,-0.9295,-0.9296,0,0,0,0,0,0,0,-0.9049,-0.9056,-0.9124,-0.9126,-0.913,-0.9141,-0.9149,-0.9168,-0.9212,-0.9186,-0.919,-0.9198,-0.9251,-0.9263,-0.9267,-0.9296,-0.9293,-0.9295,-0.9296,-0.9297,-0.9328,-0.9327,0,0,0,0,0,0,-0.9041,-0.9053,-0.9122,-0.9126,-0.9093,-0.9142,-0.9151,-0.9166,-0.9212,-0.922,-0.9197,-0.92,-0.9259,-0.9265,-0.927,-0.9276,-0.9295,-0.9297,-0.9299,-0.9328,-0.9328,-0.9327,0,0,0,0,0,0,-0.9038,-0.9046,-0.9119,-0.9091,-0.9101,-0.9143,-0.9159,-0.9167,-0.9179,-0.922,-0.9228,-0.9202,-0.926,-0.9267,-0.9284,-0.9279,-0.9298,-0.93,-0.9329,-0.9328,-0.9328,-0.9288,0,0,0,0,0,0,-0.9036,-0.9045,-0.9048,-0.9091,-0.9102,-0.9133,-0.9159,-0.9168,-0.9183,-0.9187,-0.9227,-0.9234,-0.9261,-0.928,-0.9286,-0.9282,-0.9302,-0.933,-0.9329,-0.9328,-0.929,-0.9286,-0.9283,0,0,0,0,0,-0.9032,-0.9033,-0.9047,-0.9056,-0.9106,-0.9133,-0.914,-0.9171,-0.9182,-0.9184,-0.9211,-0.9233,-0.9279,-0.9282,-0.9289,-0.9285,-0.933,-0.9329,-0.9328,-0.9292,-0.9287,-0.9283,0,0,0,0,0,0,-0.8988,-0.904,-0.9056,-0.9071,-0.9097,-0.9141,-0.9145,-0.9165,-0.9188,-0.9191,-0.9228,-0.9237,-0.925,-0.9269,-0.9272,-0.929,-0.9307,-0.9307,-0.9277,-0.9273,-0.9269,-0.9264,-0.9304,0,0,0,0,0,-0.898,-0.8998,-0.9042,-0.9051,-0.9064,-0.9102,-0.9115,-0.9137,-0.9165,-0.9176,-0.9204,-0.923,-0.925,-0.9262,-0.9283,-0.9293,-0.9302,-0.9294,-0.929,-0.9287,-0.9287,-0.9292,-0.9289,-0.9324,-0.9324,-0.9324,0,0,-0.8964,-0.8994,-0.9003,-0.9043,-0.9066,-0.9083,-0.9111,-0.9128,-0.9141,-0.9178,-0.9197,-0.9218,-0.9249,-0.9262,-0.9269,-0.9279,-0.9279,-0.9286,-0.9283,-0.9284,-0.9291,-0.9288,-0.9285,-0.9323,-0.9323,-0.9323,0,0,-0.8943,-0.8968,-0.8978,-0.9001,-0.9035,-0.9061,-0.9063,-0.9103,-0.9119,-0.9138,-0.9166,-0.9182,-0.9216,-0.9237,-0.9252,-0.9238,-0.9258,-0.9244,-0.9224,-0.923,-0.9227,-0.9225,-0.9219,-0.9217,-0.9243,-0.9243,-0.9243,0,-0.8918,-0.8946,-0.8981,-0.8996,-0.9012,-0.9048,-0.9058,-0.9078,-0.9117,-0.9127,-0.9137,-0.9181,-0.9204,-0.9222,-0.9219,-0.923,-0.9233,-0.9239,-0.9225,-0.9223,-0.9221,-0.9216,-0.9214,-0.9241,-0.9241,-0.9242,-0.9242,0,-0.8913,-0.8932,-0.8936,-0.8974,-0.899,-0.9003,-0.9039,-0.9051,-0.9072,-0.9095,-0.9113,-0.9143,-0.917,-0.9176,-0.9196,-0.9197,-0.9202,-0.9218,-0.9235,-0.9215,-0.9211,-0.921,-0.9238,-0.9239,-0.924,-0.924,0,0,-0.8867,-0.8923,-0.8924,-0.8941,-0.8982,-0.8996,-0.901,-0.9038,-0.9047,-0.9073,-0.9084,-0.9112,-0.9127,-0.9144,-0.9167,-0.9171,-0.9158,-0.9187,-0.9188,-0.918,-0.916,-0.9147,-0.9144,-0.9172,-0.9171,-0.9171,-0.9157,0,-0.8852,-0.8879,-0.891,-0.8926,-0.8944,-0.8978,-0.8989,-0.9015,-0.9037,-0.9054,-0.9078,-0.9097,-0.9116,-0.9126,-0.9133,-0.9158,-0.9154,-0.916,-0.9182,-0.9182,-0.9173,-0.9142,-0.9129,-0.9114,-0.9155,-0.9155,-0.9155,0,-0.8838,-0.8862,-0.888,-0.8919,-0.8927,-0.8937,-0.8964,-0.898,-0.9009,-0.9025,-0.9044,-0.9068,-0.9083,-0.9099,-0.912,-0.9123,-0.9133,-0.9147,-0.9147,-0.915,-0.9167,-0.9144,-0.911,-0.9107,-0.9153,-0.9153,-0.9153,0,-0.8801,-0.8838,-0.8854,-0.8868,-0.8913,-0.8919,-0.8938,-0.8968,-0.8982,-0.9006,-0.9015,-0.9039,-0.9053,-0.9071,-0.91,-0.9109,-0.9117,-0.9136,-0.913,-0.9129,-0.913,-0.913,-0.9097,-0.9138,-0.9138,-0.9138,-0.9138,0,-0.8781,-0.879,-0.8838,-0.8847,-0.8859,-0.8894,-0.8904,-0.8926,-0.8952,-0.8965,-0.8996,-0.9007,-0.9046,-0.9062,-0.9086,-0.9099,-0.9105,-0.9117,-0.9123,-0.9114,-0.9112,-0.9121,-0.9123,-0.9137,-0.9137,-0.9138,-0.9138,0,-0.8741,-0.8774,-0.8793,-0.8834,-0.8845,-0.8851,-0.8886,-0.8896,-0.892,-0.8937,-0.8943,-0.898,-0.9,-0.9032,-0.9062,-0.9077,-0.9086,-0.9096,-0.9076,-0.908,-0.9072,-0.9072,-0.9044,-0.9042,-0.9084,-0.9083,-0.9083,0,-0.8726,-0.8734,-0.8776,-0.8788,-0.8806,-0.8824,-0.8839,-0.8874,-0.8888,-0.8921,-0.8927,-0.895,-0.897,-0.9001,-0.903,-0.9053,-0.9063,-0.9052,-0.9067,-0.9057,-0.9062,-0.9061,-0.9062,-0.9048,-0.9047,-0.9047,-0.9046,0,-0.8695,-0.8711,-0.8731,-0.8757,-0.8774,-0.8796,-0.8819,-0.8827,-0.8867,-0.888,-0.8902,-0.8918,-0.8948,-0.897,-0.8997,-0.9015,-0.9037,-0.9042,-0.9041,-0.9032,-0.902,-0.9026,-0.9066,-0.9042,-0.9042,-0.9043,-0.9043,-0.9043,-0.8667,-0.8676,-0.8706,-0.8728,-0.8749,-0.877,-0.8782,-0.8807,-0.8826,-0.8854,-0.8873,-0.8893,-0.8921,-0.896,-0.8977,-0.8992,-0.9002,-0.9002,-0.9002,-0.9001,-0.8997,-0.9018,-0.8997,-0.8998,-0.8998,-0.8998,-0.8998,0,-0.8637,-0.8659,-0.8678,-0.871,-0.8727,-0.8747,-0.8773,-0.8786,-0.8803,-0.8828,-0.8847,-0.8872,-0.8893,-0.8924,-0.8947,-0.8954,-0.8964,-0.8959,-0.8958,-0.8962,-0.8988,-0.8985,-0.895,-0.895,-0.895,-0.895,-0.895,-0.895,-0.8623,-0.8639,-0.8658,-0.8683,-0.8705,-0.8725,-0.8739,-0.8758,-0.8778,-0.8804,-0.8822,-0.8842,-0.8869,-0.8895,-0.8915,-0.8923,-0.893,-0.8921,-0.8933,-0.8956,-0.896,-0.8965,-0.8963,-0.8923,-0.8923,-0.8906,-0.8906,-0.8906]}]]